TimeCDT,TemperatureF,Dew PointF,Humidity,Sea Level PressureIn,VisibilityMPH,Wind Direction,Wind SpeedMPH,Gust SpeedMPH,PrecipitationIn,Events,Conditions,WindDirDegrees,DateUTC
12:15 AM,66.2,66.2,100,30.02,5.0,Calm,Calm,-,N/A,,Clear,0,2013-08-02 05:15:00
12:35 AM,64.6,64.6,100,30.02,2.5,Calm,Calm,-,N/A,,Clear,0,2013-08-02 05:35:00
12:55 AM,64.6,64.6,100,30.02,10.0,Calm,Calm,-,N/A,,Clear,0,2013-08-02 05:55:00
1:15 AM,64.6,64.6,100,30.02,10.0,Calm,Calm,-,N/A,,Clear,0,2013-08-02 06:15:00
1:55 AM,63.7,63.7,100,30.00,5.0,Calm,Calm,-,N/A,,Clear,0,2013-08-02 06:55:00
2:15 AM,63.5,63.5,100,29.99,1.5,Calm,Calm,-,N/A,,Mist,0,2013-08-02 07:15:00
2:35 AM,63.0,63.0,100,30.00,5.0,Calm,Calm,-,N/A,,Clear,0,2013-08-02 07:35:00
2:55 AM,63.0,63.0,100,30.00,1.5,Calm,Calm,-,N/A,,Mist,0,2013-08-02 07:55:00
3:35 AM,62.4,62.4,100,30.00,10.0,Calm,Calm,-,N/A,,Clear,0,2013-08-02 08:35:00
3:55 AM,61.9,61.9,100,29.99,3.0,Calm,Calm,-,N/A,,Clear,0,2013-08-02 08:55:00
4:15 AM,62.1,62.1,100,30.00,7.0,Calm,Calm,-,N/A,,Clear,0,2013-08-02 09:15:00
4:35 AM,61.2,61.2,100,29.99,4.0,Calm,Calm,-,N/A,,Clear,0,2013-08-02 09:35:00
4:55 AM,61.3,61.3,100,30.00,3.0,Calm,Calm,-,N/A,,Clear,0,2013-08-02 09:55:00
5:15 AM,61.0,61.0,100,30.00,3.0,Calm,Calm,-,N/A,,Clear,0,2013-08-02 10:15:00
5:35 AM,60.8,60.8,100,30.01,10.0,Calm,Calm,-,N/A,,Clear,0,2013-08-02 10:35:00
5:55 AM,60.4,60.4,100,30.01,3.0,Calm,Calm,-,N/A,,Clear,0,2013-08-02 10:55:00
6:15 AM,60.3,60.3,100,30.01,7.0,Calm,Calm,-,N/A,,Clear,0,2013-08-02 11:15:00
6:35 AM,61.0,61.0,100,30.01,1.2,Calm,Calm,-,N/A,,Mostly Cloudy,0,2013-08-02 11:35:00
6:55 AM,61.3,61.3,100,30.00,0.2,Calm,Calm,-,N/A,Fog,Fog,0,2013-08-02 11:55:00
7:35 AM,64.9,64.9,100,30.02,0.5,Calm,Calm,-,N/A,Fog,Fog,0,2013-08-02 12:35:00
7:55 AM,66.7,66.7,100,30.02,10.0,Calm,Calm,-,N/A,,Scattered Clouds,0,2013-08-02 12:55:00
8:15 AM,68.2,68.2,100,30.03,10.0,Calm,Calm,-,N/A,,Clear,0,2013-08-02 13:15:00
8:35 AM,72.0,70.7,96,30.03,10.0,Calm,Calm,-,N/A,,Clear,0,2013-08-02 13:35:00
8:55 AM,74.7,70.0,85,30.03,10.0,Calm,Calm,-,N/A,,Clear,0,2013-08-02 13:55:00
9:15 AM,76.3,70.7,83,30.04,10.0,South,3.5,-,N/A,,Clear,190,2013-08-02 14:15:00
9:35 AM,77.9,68.7,73,30.03,10.0,South,5.8,-,N/A,,Clear,180,2013-08-02 14:35:00
9:55 AM,79.2,66.9,66,30.04,10.0,South,5.8,-,N/A,,Clear,190,2013-08-02 14:55:00
10:15 AM,79.2,66.9,66,30.04,10.0,South,4.6,-,N/A,,Clear,190,2013-08-02 15:15:00
10:35 AM,80.6,66.4,62,30.04,10.0,South,6.9,-,N/A,,Clear,190,2013-08-02 15:35:00
10:55 AM,79.2,64.4,60,30.05,10.0,SSW,8.1,-,N/A,,Clear,200,2013-08-02 15:55:00
11:15 AM,80.1,64.9,60,30.03,10.0,South,5.8,-,N/A,,Clear,180,2013-08-02 16:15:00
11:35 AM,80.8,65.7,60,30.04,10.0,SSW,3.5,-,N/A,,Clear,200,2013-08-02 16:35:00
11:55 AM,81.5,64.9,57,30.04,10.0,South,8.1,-,N/A,,Clear,190,2013-08-02 16:55:00
12:15 PM,81.7,66.0,59,30.04,10.0,South,5.8,-,N/A,,Clear,170,2013-08-02 17:15:00
12:35 PM,82.6,65.1,55,30.03,10.0,SSE,4.6,-,N/A,,Clear,150,2013-08-02 17:35:00
12:55 PM,82.4,64.2,54,30.04,10.0,SSW,4.6,-,N/A,,Clear,200,2013-08-02 17:55:00
1:15 PM,82.6,66.4,58,30.03,10.0,South,4.6,-,N/A,,Clear,190,2013-08-02 18:15:00
1:35 PM,83.3,65.3,54,30.02,10.0,SSW,8.1,-,N/A,,Clear,210,2013-08-02 18:35:00
1:55 PM,82.9,65.7,56,30.02,10.0,South,3.5,-,N/A,,Clear,180,2013-08-02 18:55:00
2:15 PM,84.6,66.9,55,30.02,10.0,South,4.6,-,N/A,,Clear,170,2013-08-02 19:15:00
2:35 PM,84.2,63.7,50,30.01,10.0,Calm,Calm,-,N/A,,Clear,0,2013-08-02 19:35:00
2:55 PM,83.1,64.4,53,30.00,10.0,South,5.8,-,N/A,,Clear,190,2013-08-02 19:55:00
3:15 PM,82.9,65.7,56,30.00,10.0,South,4.6,-,N/A,,Clear,190,2013-08-02 20:15:00
3:35 PM,82.4,65.5,56,29.99,10.0,South,3.5,-,N/A,,Clear,170,2013-08-02 20:35:00
3:55 PM,81.5,66.4,60,29.99,10.0,South,3.5,-,N/A,,Clear,190,2013-08-02 20:55:00
4:15 PM,82.2,66.0,58,29.99,10.0,South,3.5,-,N/A,,Clear,170,2013-08-02 21:15:00
4:35 PM,81.9,67.3,61,29.98,10.0,South,3.5,-,N/A,,Clear,180,2013-08-02 21:35:00
4:55 PM,80.8,67.6,64,29.98,10.0,South,4.6,-,N/A,,Clear,180,2013-08-02 21:55:00
5:15 PM,80.8,67.3,63,29.97,10.0,South,3.5,-,N/A,,Clear,170,2013-08-02 22:15:00
5:35 PM,80.1,66.2,62,29.96,10.0,South,4.6,-,N/A,,Clear,180,2013-08-02 22:35:00
5:55 PM,79.9,66.4,63,29.96,10.0,SSE,3.5,-,N/A,,Clear,160,2013-08-02 22:55:00
6:15 PM,79.5,66.4,64,29.96,10.0,South,4.6,-,N/A,,Clear,170,2013-08-02 23:15:00
6:35 PM,79.3,66.2,64,29.96,10.0,Calm,Calm,-,N/A,,Clear,0,2013-08-02 23:35:00
6:55 PM,79.0,66.4,65,29.97,10.0,Calm,Calm,-,N/A,,Scattered Clouds,0,2013-08-02 23:55:00
7:15 PM,78.6,66.9,67,29.96,10.0,Calm,Calm,-,N/A,,Clear,0,2013-08-03 00:15:00
7:35 PM,77.9,66.9,69,29.96,10.0,SSE,3.5,-,N/A,,Clear,160,2013-08-03 00:35:00
7:55 PM,78.3,66.4,67,29.97,10.0,South,3.5,-,N/A,,Clear,170,2013-08-03 00:55:00
8:15 PM,77.5,66.6,69,29.96,10.0,SSE,3.5,-,N/A,,Clear,160,2013-08-03 01:15:00
8:35 PM,77.9,66.4,68,29.97,10.0,South,4.6,-,N/A,,Mostly Cloudy,170,2013-08-03 01:35:00
8:55 PM,77.5,66.6,69,29.99,10.0,Calm,Calm,-,N/A,,Mostly Cloudy,0,2013-08-03 01:55:00
9:15 PM,75.9,67.8,76,29.99,10.0,Calm,Calm,-,N/A,,Scattered Clouds,0,2013-08-03 02:15:00
9:35 PM,74.5,68.2,81,29.99,10.0,Calm,Calm,-,N/A,,Mostly Cloudy,0,2013-08-03 02:35:00
9:55 PM,74.8,68.0,79,29.98,10.0,Calm,Calm,-,N/A,Rain,Light Rain,0,2013-08-03 02:55:00
10:15 PM,73.9,68.7,84,29.98,10.0,Calm,Calm,-,N/A,,Mostly Cloudy,0,2013-08-03 03:15:00
10:35 PM,73.9,68.0,82,29.98,10.0,Calm,Calm,-,N/A,,Mostly Cloudy,0,2013-08-03 03:35:00
10:55 PM,72.7,70.7,93,29.98,10.0,Calm,Calm,-,N/A,,Mostly Cloudy,0,2013-08-03 03:55:00
11:15 PM,73.0,70.9,93,29.98,10.0,Calm,Calm,-,N/A,,Overcast,0,2013-08-03 04:15:00
11:35 PM,73.4,69.1,86,29.97,10.0,Calm,Calm,-,N/A,,Mostly Cloudy,0,2013-08-03 04:35:00
11:55 PM,71.6,70.5,96,29.97,10.0,Calm,Calm,-,N/A,,Scattered Clouds,0,2013-08-03 04:55:00